BAW672 EGLL-LGTS

Flight info

Callsign BAW672
Flight time 2h 42m
Altitude 37000
Route DET L6 DVR UL9 KONAN DCT KOK DCT SISGA DCT KOMOB M150 PITES DCT BABEG DCT KUMOM DCT LUMUS DCT KUSIB DCT MEDUX UM867 KOGAT DCT ERANA T389 ALIKO
Aircraft A320/M-SDE3FGHIRWY/LB1

Departure

Time 2026-05-05 16:18
Airport London Heathrow Airport (EGLL)

Arrival

Time 2026-05-05 19:00
Airport Thessaloniki Macedonia International Airport (LGTS)
Time Latitude Longitude Altitude Speed Heading
2026-05-05 15:42 51.47187 -0.48599 86 ft 0 kts 269°
2026-05-05 15:43 51.47188 -0.48589 86 ft 0 kts 269°
2026-05-05 16:07 51.47188 -0.48579 89 ft 2 kts 269°
2026-05-05 16:07 51.47188 -0.48547 86 ft 3 kts 269°
2026-05-05 16:07 51.47188 -0.48516 86 ft 3 kts 263°
2026-05-05 16:08 51.47193 -0.48488 87 ft 3 kts 227°
2026-05-05 16:08 51.47206 -0.48473 88 ft 2 kts 183°
2026-05-05 16:08 51.47217 -0.48473 86 ft 3 kts 179°
2026-05-05 16:08 51.47227 -0.48473 89 ft 0 kts 179°
2026-05-05 16:10 51.47219 -0.48473 89 ft 6 kts 179°
2026-05-05 16:10 51.47169 -0.48472 87 ft 8 kts 180°
2026-05-05 16:11 51.47116 -0.48472 87 ft 5 kts 180°
2026-05-05 16:11 51.46884 -0.48470 88 ft 2 kts 180°
2026-05-05 16:12 51.46866 -0.48469 87 ft 3 kts 178°
2026-05-05 16:12 51.46817 -0.48468 86 ft 5 kts 179°
2026-05-05 16:13 51.46657 -0.48467 86 ft 1 kts 180°
2026-05-05 16:13 51.46593 -0.48466 86 ft 8 kts 180°
2026-05-05 16:13 51.46541 -0.48466 86 ft 4 kts 180°
2026-05-05 16:14 51.46488 -0.48429 90 ft 0 kts 121°
2026-05-05 16:14 51.46481 -0.48401 88 ft 0 kts 100°
2026-05-05 16:15 51.46480 -0.48379 88 ft 9 kts 93°
2026-05-05 16:15 51.46480 -0.48265 88 ft 0 kts 90°
2026-05-05 16:16 51.46480 -0.48155 88 ft 37 kts 90°
2026-05-05 16:17 51.46486 -0.46002 90 ft 145 kts 89°
2026-05-05 16:17 51.46491 -0.44204 323 ft 161 kts 90°
2026-05-05 16:18 51.46107 -0.40756 1434 ft 174 kts 123°
2026-05-05 16:18 51.45308 -0.39151 1671 ft 195 kts 125°
2026-05-05 16:18 51.43694 -0.35137 2249 ft 236 kts 102°
2026-05-05 16:19 51.43328 -0.32461 2753 ft 253 kts 99°
2026-05-05 16:19 51.42948 -0.29685 3577 ft 257 kts 100°
2026-05-05 16:19 51.42162 -0.24006 5303 ft 264 kts 99°
2026-05-05 16:20 51.41374 -0.18160 6870 ft 273 kts 101°
2026-05-05 16:20 51.40549 -0.12114 8411 ft 282 kts 100°
2026-05-05 16:21 51.39690 -0.05886 9926 ft 291 kts 102°
2026-05-05 16:22 51.38251 0.04460 10683 ft 349 kts 102°
2026-05-05 16:22 51.37169 0.12180 11882 ft 358 kts 102°
2026-05-05 16:23 51.36068 0.20001 13256 ft 362 kts 102°
2026-05-05 16:23 51.35514 0.23950 13904 ft 365 kts 102°
2026-05-05 16:23 51.34388 0.31941 15023 ft 371 kts 102°
2026-05-05 16:24 51.33811 0.35990 15550 ft 375 kts 102°
2026-05-05 16:24 51.33227 0.40068 16086 ft 378 kts 102°
2026-05-05 16:24 51.32042 0.48332 17383 ft 384 kts 102°
2026-05-05 16:25 51.31448 0.52464 17865 ft 389 kts 102°
2026-05-05 16:25 51.30205 0.60995 18872 ft 398 kts 103°
2026-05-05 16:25 51.29491 0.65282 19382 ft 401 kts 105°
2026-05-05 16:26 51.27889 0.73880 20400 ft 407 kts 107°
2026-05-05 16:26 51.26220 0.82604 21328 ft 413 kts 107°
2026-05-05 16:27 51.25391 0.87009 21773 ft 416 kts 106°
2026-05-05 16:27 51.24753 0.90435 22101 ft 418 kts 106°
2026-05-05 16:27 51.23927 0.94904 22501 ft 421 kts 106°
2026-05-05 16:27 51.23096 0.99416 22876 ft 425 kts 107°
2026-05-05 16:28 51.22258 1.03961 23243 ft 430 kts 107°
2026-05-05 16:28 51.21409 1.08550 23593 ft 434 kts 108°
2026-05-05 16:28 51.20547 1.13184 23939 ft 436 kts 108°
2026-05-05 16:28 51.19693 1.17750 24331 ft 436 kts 108°
2026-05-05 16:29 51.18822 1.22386 24677 ft 438 kts 108°
2026-05-05 16:29 51.17942 1.27041 25023 ft 439 kts 109°
2026-05-05 16:29 51.17055 1.31708 25386 ft 440 kts 108°
2026-05-05 16:29 51.16311 1.36452 25733 ft 443 kts 100°
2026-05-05 16:30 51.15993 1.41348 26066 ft 446 kts 96°
2026-05-05 16:30 51.15769 1.46275 26447 ft 446 kts 95°
2026-05-05 16:30 51.15538 1.51208 26822 ft 447 kts 97°
2026-05-05 16:30 51.15302 1.56147 27156 ft 448 kts 96°
2026-05-05 16:31 51.15059 1.61099 27496 ft 449 kts 97°
2026-05-05 16:31 51.14816 1.66051 27956 ft 447 kts 97°
2026-05-05 16:31 51.14571 1.70981 28429 ft 446 kts 97°
2026-05-05 16:31 51.14325 1.75887 28894 ft 444 kts 98°
2026-05-05 16:32 51.14074 1.80782 29364 ft 443 kts 97°
2026-05-05 16:32 51.13821 1.85651 29833 ft 441 kts 97°
2026-05-05 16:32 51.13567 1.90517 30245 ft 440 kts 97°
2026-05-05 16:32 51.13313 1.95363 30666 ft 438 kts 98°
2026-05-05 16:33 51.13061 2.00189 31063 ft 437 kts 97°
2026-05-05 16:33 51.12811 2.05005 31464 ft 436 kts 97°
2026-05-05 16:33 51.12561 2.09813 31858 ft 435 kts 98°
2026-05-05 16:33 51.12307 2.14618 32251 ft 435 kts 98°
2026-05-05 16:34 51.12051 2.19415 32642 ft 434 kts 97°
2026-05-05 16:34 51.11791 2.24193 33026 ft 433 kts 98°
2026-05-05 16:34 51.11528 2.28976 33409 ft 433 kts 98°
2026-05-05 16:34 51.11262 2.33742 33802 ft 432 kts 96°
2026-05-05 16:35 51.10995 2.38504 34118 ft 431 kts 98°
2026-05-05 16:35 51.10730 2.43249 34456 ft 430 kts 98°
2026-05-05 16:35 51.10462 2.47981 34734 ft 430 kts 98°
2026-05-05 16:35 51.10194 2.52664 34871 ft 431 kts 98°
2026-05-05 16:36 51.09553 2.62213 35207 ft 430 kts 104°
2026-05-05 16:36 51.08763 2.66777 35442 ft 427 kts 114°
2026-05-05 16:36 51.07558 2.70996 35676 ft 424 kts 121°
2026-05-05 16:37 51.06169 2.75142 35903 ft 425 kts 121°
2026-05-05 16:37 51.04783 2.79301 36110 ft 426 kts 120°
2026-05-05 16:37 51.03402 2.83464 36317 ft 427 kts 120°
2026-05-05 16:37 51.02017 2.87644 36531 ft 427 kts 120°
2026-05-05 16:38 51.00627 2.91826 36745 ft 428 kts 120°
2026-05-05 16:38 50.99234 2.96000 36879 ft 429 kts 121°
2026-05-05 16:38 50.96398 3.04474 36903 ft 439 kts 121°
2026-05-05 16:39 50.93516 3.13063 36898 ft 442 kts 121°
2026-05-05 16:39 50.90620 3.21668 36886 ft 443 kts 121°
2026-05-05 16:40 50.87717 3.30272 36865 ft 443 kts 121°
2026-05-05 16:40 50.84818 3.38805 36888 ft 443 kts 121°
2026-05-05 16:41 50.81893 3.47392 36888 ft 444 kts 121°
2026-05-05 16:41 50.78963 3.55979 36894 ft 444 kts 121°
2026-05-05 16:42 50.76022 3.64576 36897 ft 444 kts 121°
2026-05-05 16:42 50.73078 3.73144 36897 ft 444 kts 121°
2026-05-05 16:43 50.70124 3.81690 36892 ft 443 kts 121°
2026-05-05 16:43 50.67195 3.90151 36900 ft 442 kts 121°
2026-05-05 16:44 50.64251 3.98639 36896 ft 441 kts 121°
2026-05-05 16:44 50.61301 4.07111 36893 ft 440 kts 121°
2026-05-05 16:45 50.58338 4.15552 36892 ft 440 kts 121°
2026-05-05 16:45 50.55365 4.23960 36887 ft 440 kts 121°
2026-05-05 16:46 50.52391 4.32357 36888 ft 440 kts 121°
2026-05-05 16:46 50.49413 4.40746 36888 ft 439 kts 122°
2026-05-05 16:47 50.46429 4.49108 36889 ft 439 kts 122°
2026-05-05 16:47 50.43434 4.57479 36884 ft 439 kts 122°
2026-05-05 16:48 50.40452 4.65819 36888 ft 439 kts 122°
2026-05-05 16:48 50.37457 4.74146 36881 ft 438 kts 122°
2026-05-05 16:49 50.34484 4.82383 36875 ft 437 kts 122°
2026-05-05 16:49 50.31486 4.90669 36873 ft 437 kts 122°
2026-05-05 16:50 50.28482 4.98936 36870 ft 436 kts 122°
2026-05-05 16:50 50.25473 5.07177 36858 ft 436 kts 122°
2026-05-05 16:51 50.22459 5.15407 36862 ft 436 kts 122°
2026-05-05 16:51 50.19447 5.23622 36861 ft 435 kts 122°
2026-05-05 16:52 50.16946 5.30436 36855 ft 435 kts 122°
2026-05-05 16:52 50.13717 5.39179 36843 ft 434 kts 122°
2026-05-05 16:53 50.10698 5.47337 36848 ft 435 kts 122°
2026-05-05 16:53 50.08170 5.54168 36844 ft 435 kts 122°
2026-05-05 16:54 50.05167 5.62273 36851 ft 434 kts 122°
2026-05-05 16:54 50.02141 5.70403 36843 ft 434 kts 122°
2026-05-05 16:55 49.99108 5.78519 36843 ft 434 kts 122°
2026-05-05 16:55 49.96070 5.86634 36840 ft 434 kts 122°
2026-05-05 16:56 49.93022 5.94736 36826 ft 435 kts 123°
2026-05-05 16:56 49.89963 6.02832 36834 ft 435 kts 123°
2026-05-05 16:57 49.86899 6.10928 36846 ft 436 kts 123°
2026-05-05 16:57 49.83923 6.19122 36849 ft 437 kts 120°
2026-05-05 16:58 49.81123 6.27501 36850 ft 437 kts 119°
2026-05-05 16:58 49.78366 6.35816 36832 ft 437 kts 120°
2026-05-05 16:59 49.75538 6.44150 36837 ft 437 kts 120°
2026-05-05 16:59 49.72685 6.52453 36833 ft 437 kts 120°
2026-05-05 17:00 49.69946 6.60853 36821 ft 438 kts 118°
2026-05-05 17:00 49.67312 6.69335 36826 ft 438 kts 118°
2026-05-05 17:01 49.64662 6.77798 36809 ft 438 kts 118°
2026-05-05 17:01 49.61982 6.86229 36818 ft 438 kts 119°
2026-05-05 17:02 49.59298 6.94595 36821 ft 438 kts 119°
2026-05-05 17:02 49.56591 7.02987 36839 ft 438 kts 119°
2026-05-05 17:03 49.53880 7.11411 36843 ft 438 kts 119°
2026-05-05 17:03 49.51162 7.19811 36831 ft 439 kts 119°
2026-05-05 17:04 49.48432 7.28215 36829 ft 439 kts 120°
2026-05-05 17:04 49.45691 7.36614 36835 ft 439 kts 120°
2026-05-05 17:05 49.42968 7.44951 36835 ft 439 kts 120°
2026-05-05 17:05 49.40216 7.53336 36824 ft 440 kts 120°
2026-05-05 17:06 49.37458 7.61719 36809 ft 440 kts 120°
2026-05-05 17:06 49.34700 7.70091 36822 ft 440 kts 120°
2026-05-05 17:07 49.31931 7.78451 36832 ft 439 kts 120°
2026-05-05 17:07 49.29150 7.86800 36839 ft 440 kts 120°
2026-05-05 17:08 49.26375 7.95136 36842 ft 439 kts 120°
2026-05-05 17:08 49.23590 8.03471 36824 ft 440 kts 120°
2026-05-05 17:09 49.20799 8.11798 36829 ft 440 kts 120°
2026-05-05 17:09 49.18014 8.20065 36833 ft 440 kts 121°
2026-05-05 17:10 49.15196 8.28379 36843 ft 441 kts 121°
2026-05-05 17:10 49.12371 8.36699 36844 ft 441 kts 121°
2026-05-05 17:11 49.09553 8.45014 36844 ft 441 kts 121°
2026-05-05 17:11 49.06734 8.53313 36849 ft 441 kts 121°
2026-05-05 17:12 49.03900 8.61604 36849 ft 441 kts 121°
2026-05-05 17:12 49.01055 8.69880 36849 ft 441 kts 121°
2026-05-05 17:13 48.98201 8.78152 36851 ft 441 kts 121°
2026-05-05 17:13 48.95344 8.86415 36833 ft 441 kts 121°
2026-05-05 17:14 48.92498 8.94641 36834 ft 442 kts 121°
2026-05-05 17:14 48.89628 9.02904 36840 ft 442 kts 121°
2026-05-05 17:15 48.86747 9.11168 36843 ft 443 kts 121°
2026-05-05 17:15 48.83852 9.19426 36849 ft 443 kts 121°
2026-05-05 17:16 48.80951 9.27677 36839 ft 443 kts 122°
2026-05-05 17:16 48.78047 9.35916 36849 ft 443 kts 122°
2026-05-05 17:17 48.75136 9.44148 36850 ft 443 kts 122°
2026-05-05 17:17 48.72221 9.52384 36852 ft 443 kts 122°
2026-05-05 17:18 48.69298 9.60607 36855 ft 443 kts 122°
2026-05-05 17:18 48.66348 9.68804 36824 ft 443 kts 123°
2026-05-05 17:19 48.63233 9.76848 36832 ft 443 kts 125°
2026-05-05 17:19 48.60036 9.84809 36837 ft 443 kts 125°
2026-05-05 17:20 48.56849 9.92795 36853 ft 444 kts 125°
2026-05-05 17:20 48.53683 10.00798 36826 ft 444 kts 125°
2026-05-05 17:21 48.50518 10.08805 36840 ft 445 kts 125°
2026-05-05 17:22 48.45747 10.20791 36849 ft 445 kts 125°
2026-05-05 17:22 48.42592 10.28665 36854 ft 445 kts 126°
2026-05-05 17:23 48.39409 10.36604 36860 ft 445 kts 125°
2026-05-05 17:23 48.36200 10.44584 36832 ft 446 kts 126°
2026-05-05 17:24 48.32982 10.52559 36844 ft 446 kts 126°
2026-05-05 17:24 48.29760 10.60525 36848 ft 446 kts 126°
2026-05-05 17:25 48.26531 10.68489 36849 ft 446 kts 126°
2026-05-05 17:25 48.23295 10.76426 36824 ft 446 kts 126°
2026-05-05 17:26 48.20051 10.84373 36832 ft 447 kts 126°
2026-05-05 17:26 48.16796 10.92328 36836 ft 448 kts 126°
2026-05-05 17:27 48.13530 11.00278 36850 ft 448 kts 126°
2026-05-05 17:27 48.10263 11.08221 36848 ft 449 kts 127°
2026-05-05 17:28 48.06983 11.16173 36812 ft 450 kts 126°
2026-05-05 17:28 48.03697 11.24081 36820 ft 451 kts 127°
2026-05-05 17:29 48.00377 11.32035 36832 ft 451 kts 127°
2026-05-05 17:29 47.97052 11.40000 36841 ft 452 kts 127°
2026-05-05 17:30 47.93734 11.47968 36842 ft 452 kts 127°
2026-05-05 17:30 47.90402 11.55937 36821 ft 453 kts 127°
2026-05-05 17:31 47.87054 11.63888 36826 ft 453 kts 127°
2026-05-05 17:31 47.83699 11.71838 36823 ft 453 kts 127°
2026-05-05 17:32 47.80332 11.79800 36826 ft 454 kts 127°
2026-05-05 17:32 47.76973 11.87727 36800 ft 454 kts 127°
2026-05-05 17:33 47.73622 11.95616 36804 ft 454 kts 127°
2026-05-05 17:33 47.70238 12.03543 36805 ft 455 kts 127°
2026-05-05 17:34 47.66843 12.11482 36808 ft 455 kts 127°
2026-05-05 17:34 47.63443 12.19398 36817 ft 455 kts 127°
2026-05-05 17:35 47.60036 12.27302 36822 ft 456 kts 127°
2026-05-05 17:35 47.56618 12.35218 36819 ft 455 kts 127°
2026-05-05 17:36 47.52876 12.42697 36827 ft 452 kts 133°
2026-05-05 17:36 47.49005 12.50043 36828 ft 452 kts 133°
2026-05-05 17:37 47.45162 12.57327 36829 ft 453 kts 132°
2026-05-05 17:37 47.41281 12.64663 36830 ft 454 kts 132°
2026-05-05 17:38 47.37381 12.72008 36838 ft 455 kts 132°
2026-05-05 17:38 47.33475 12.79335 36863 ft 455 kts 132°
2026-05-05 17:39 47.29561 12.86668 36871 ft 455 kts 132°
2026-05-05 17:39 47.25642 12.93989 36847 ft 455 kts 132°
2026-05-05 17:40 47.21718 13.01298 36881 ft 456 kts 132°
2026-05-05 17:40 47.17783 13.08623 36897 ft 456 kts 132°
2026-05-05 17:41 47.13833 13.15951 36916 ft 457 kts 132°
2026-05-05 17:41 47.09905 13.23212 36940 ft 457 kts 132°
2026-05-05 17:42 47.05954 13.30501 36916 ft 456 kts 131°
2026-05-05 17:42 47.01989 13.37788 36923 ft 457 kts 131°
2026-05-05 17:43 46.98017 13.45067 36956 ft 458 kts 132°
2026-05-05 17:43 46.94038 13.52352 36965 ft 458 kts 132°
2026-05-05 17:44 46.90724 13.58390 36978 ft 457 kts 133°
2026-05-05 17:44 46.86739 13.65646 36961 ft 458 kts 132°
2026-05-05 17:45 46.82749 13.72899 36957 ft 458 kts 132°
2026-05-05 17:45 46.78747 13.80151 36960 ft 458 kts 132°
2026-05-05 17:46 46.74743 13.87391 36960 ft 459 kts 132°
2026-05-05 17:46 46.70723 13.94619 36943 ft 459 kts 132°
2026-05-05 17:47 46.66711 14.01829 36966 ft 459 kts 132°
2026-05-05 17:47 46.62709 14.09000 36960 ft 459 kts 132°
2026-05-05 17:48 46.58678 14.16206 36968 ft 459 kts 133°
2026-05-05 17:48 46.54541 14.23278 36969 ft 459 kts 134°
2026-05-05 17:49 46.50320 14.30214 36950 ft 459 kts 135°
2026-05-05 17:49 46.46088 14.37153 36969 ft 458 kts 134°
2026-05-05 17:50 46.41888 14.44109 36986 ft 459 kts 134°
2026-05-05 17:50 46.37698 14.51075 37017 ft 458 kts 134°
2026-05-05 17:51 46.33506 14.58020 37006 ft 459 kts 135°
2026-05-05 17:51 46.29289 14.64970 37003 ft 460 kts 135°
2026-05-05 17:52 46.25062 14.71913 36997 ft 460 kts 135°
2026-05-05 17:52 46.20824 14.78850 36995 ft 460 kts 134°
2026-05-05 17:53 46.16615 14.85734 37005 ft 460 kts 134°
2026-05-05 17:53 46.12383 14.92640 36996 ft 460 kts 135°
2026-05-05 17:54 46.08135 14.99554 36990 ft 461 kts 135°
2026-05-05 17:54 46.03881 15.06459 36999 ft 461 kts 135°
2026-05-05 17:55 45.99620 15.13355 36995 ft 461 kts 135°
2026-05-05 17:55 45.95353 15.20246 36984 ft 461 kts 135°
2026-05-05 17:56 45.91080 15.27124 36987 ft 462 kts 135°
2026-05-05 17:56 45.86803 15.34001 36989 ft 462 kts 135°
2026-05-05 17:57 45.82512 15.40876 36987 ft 462 kts 135°
2026-05-05 17:57 45.78218 15.47737 36987 ft 462 kts 135°
2026-05-05 17:58 45.73941 15.54555 36992 ft 463 kts 135°
2026-05-05 17:58 45.69641 15.61387 37005 ft 462 kts 135°
2026-05-05 17:59 45.65330 15.68224 36995 ft 462 kts 135°
2026-05-05 17:59 45.61017 15.75044 37013 ft 462 kts 135°
2026-05-05 18:00 45.56705 15.81866 36996 ft 463 kts 135°
2026-05-05 18:00 45.52382 15.88686 36991 ft 464 kts 135°
2026-05-05 18:01 45.48044 15.95504 37010 ft 465 kts 135°
2026-05-05 18:01 45.43683 16.02328 37005 ft 465 kts 135°
2026-05-05 18:02 45.39354 16.09087 36997 ft 465 kts 135°
2026-05-05 18:02 45.34994 16.15884 37002 ft 465 kts 135°
2026-05-05 18:03 45.30619 16.22698 37007 ft 466 kts 135°
2026-05-05 18:03 45.26242 16.29494 37008 ft 466 kts 135°
2026-05-05 18:04 45.21860 16.36271 37011 ft 466 kts 135°
2026-05-05 18:04 45.17470 16.43047 36994 ft 467 kts 135°
2026-05-05 18:05 45.13074 16.49837 37000 ft 468 kts 135°
2026-05-05 18:05 45.08711 16.56687 37010 ft 468 kts 135°
2026-05-05 18:06 45.04393 16.63514 37015 ft 469 kts 135°
2026-05-05 18:06 45.00006 16.70407 37011 ft 469 kts 135°
2026-05-05 18:07 44.95650 16.77205 37002 ft 470 kts 135°
2026-05-05 18:07 44.91249 16.84054 36993 ft 471 kts 135°
2026-05-05 18:08 44.86849 16.90894 37008 ft 471 kts 135°
2026-05-05 18:08 44.82435 16.97729 37006 ft 471 kts 135°
2026-05-05 18:09 44.78015 17.04571 37009 ft 472 kts 135°
2026-05-05 18:09 44.73584 17.11414 37013 ft 473 kts 135°
2026-05-05 18:10 44.69141 17.18253 37021 ft 473 kts 135°
2026-05-05 18:10 44.64724 17.25027 37017 ft 474 kts 135°
2026-05-05 18:11 44.60263 17.31865 37014 ft 475 kts 135°
2026-05-05 18:11 44.55797 17.38708 37025 ft 476 kts 135°
2026-05-05 18:12 44.51308 17.45547 37028 ft 476 kts 135°
2026-05-05 18:12 44.46811 17.52372 37042 ft 477 kts 135°
2026-05-05 18:13 44.42306 17.59197 37038 ft 478 kts 135°
2026-05-05 18:13 44.37797 17.66030 37047 ft 478 kts 135°
2026-05-05 18:14 44.33268 17.72868 37057 ft 479 kts 135°
2026-05-05 18:14 44.28743 17.79680 37063 ft 479 kts 135°
2026-05-05 18:15 44.24202 17.86493 37055 ft 479 kts 135°
2026-05-05 18:15 44.19664 17.93295 37057 ft 479 kts 135°
2026-05-05 18:16 44.15145 18.00063 37069 ft 480 kts 135°
2026-05-05 18:16 44.10588 18.06863 37068 ft 480 kts 135°
2026-05-05 18:17 44.06019 18.13642 37083 ft 481 kts 135°
2026-05-05 18:17 44.01442 18.20428 37087 ft 481 kts 135°
2026-05-05 18:18 43.96864 18.27207 37098 ft 481 kts 135°
2026-05-05 18:18 43.92274 18.33975 37104 ft 482 kts 135°
2026-05-05 18:19 43.87679 18.40736 37084 ft 482 kts 136°
2026-05-05 18:19 43.83081 18.47493 37099 ft 482 kts 136°
2026-05-05 18:20 43.78521 18.54190 37099 ft 481 kts 136°
2026-05-05 18:20 43.73918 18.60924 37108 ft 481 kts 136°
2026-05-05 18:21 43.69312 18.67645 37098 ft 482 kts 136°
2026-05-05 18:21 43.64698 18.74364 37091 ft 482 kts 136°
2026-05-05 18:22 43.60077 18.81069 37078 ft 482 kts 136°
2026-05-05 18:22 43.55452 18.87774 37088 ft 483 kts 136°
2026-05-05 18:23 43.50807 18.94484 37074 ft 484 kts 136°
2026-05-05 18:23 43.46160 19.01178 37084 ft 484 kts 136°
2026-05-05 18:24 43.41502 19.07884 37085 ft 485 kts 136°
2026-05-05 18:24 43.36835 19.14582 37085 ft 485 kts 136°
2026-05-05 18:25 43.32157 19.21273 37071 ft 486 kts 136°
2026-05-05 18:25 43.27467 19.27968 37069 ft 487 kts 136°
2026-05-05 18:26 43.22769 19.34667 37073 ft 487 kts 136°
2026-05-05 18:26 43.18102 19.41319 37071 ft 487 kts 136°
2026-05-05 18:27 43.13387 19.47992 37093 ft 487 kts 135°
2026-05-05 18:27 43.08669 19.54656 37085 ft 487 kts 135°
2026-05-05 18:28 43.01599 19.64645 37085 ft 487 kts 136°
2026-05-05 18:28 42.96876 19.71281 37078 ft 487 kts 136°
2026-05-05 18:29 42.92143 19.77896 37089 ft 487 kts 136°
2026-05-05 18:29 42.87414 19.84523 37086 ft 487 kts 135°
2026-05-05 18:30 42.82679 19.91149 37094 ft 488 kts 135°
2026-05-05 18:30 42.77931 19.97760 37086 ft 488 kts 136°
2026-05-05 18:31 42.73317 20.04539 37092 ft 489 kts 130°
2026-05-05 18:31 42.69005 20.11703 37084 ft 489 kts 130°
2026-05-05 18:32 42.64705 20.18787 37085 ft 488 kts 130°
2026-05-05 18:32 42.60375 20.25893 37078 ft 487 kts 130°
2026-05-05 18:33 42.56068 20.32963 37060 ft 487 kts 130°
2026-05-05 18:33 42.51741 20.40054 37056 ft 488 kts 130°
2026-05-05 18:34 42.47409 20.47129 37059 ft 488 kts 130°
2026-05-05 18:34 42.43804 20.53008 37071 ft 488 kts 129°
2026-05-05 18:35 42.39456 20.60084 37077 ft 488 kts 130°
2026-05-05 18:35 42.35110 20.67143 37080 ft 488 kts 130°
2026-05-05 18:36 42.30755 20.74177 37067 ft 488 kts 130°
2026-05-05 18:36 42.26396 20.81223 37085 ft 489 kts 129°
2026-05-05 18:37 42.22024 20.88272 37075 ft 489 kts 130°
2026-05-05 18:37 42.17674 20.95254 37077 ft 489 kts 130°
2026-05-05 18:38 42.13300 21.02264 37058 ft 489 kts 130°
2026-05-05 18:38 42.08627 21.08896 37062 ft 489 kts 137°
2026-05-05 18:39 42.03669 21.15181 37060 ft 489 kts 137°
2026-05-05 18:39 41.98717 21.21459 37049 ft 490 kts 137°
2026-05-05 18:40 41.93759 21.27737 37041 ft 490 kts 137°
2026-05-05 18:40 41.88781 21.34026 37047 ft 490 kts 137°
2026-05-05 18:41 41.83831 21.40256 37046 ft 491 kts 137°
2026-05-05 18:41 41.78858 21.46517 37044 ft 490 kts 137°
2026-05-05 18:42 41.73874 21.52771 37003 ft 491 kts 137°
2026-05-05 18:42 41.71375 21.55894 36724 ft 491 kts 137°
2026-05-05 18:42 41.68874 21.59014 36445 ft 492 kts 137°
2026-05-05 18:43 41.66360 21.62147 35670 ft 497 kts 137°
2026-05-05 18:43 41.63813 21.65323 34800 ft 502 kts 137°
2026-05-05 18:43 41.61248 21.68525 33858 ft 508 kts 137°
2026-05-05 18:43 41.58654 21.71762 32775 ft 513 kts 137°
2026-05-05 18:44 41.56038 21.75019 31793 ft 514 kts 137°
2026-05-05 18:44 41.53432 21.78255 30877 ft 510 kts 137°
2026-05-05 18:44 41.50846 21.81461 29373 ft 506 kts 137°
2026-05-05 18:44 41.48271 21.84648 28313 ft 504 kts 137°
2026-05-05 18:45 41.45730 21.87793 27710 ft 494 kts 137°
2026-05-05 18:45 41.43226 21.90894 26946 ft 490 kts 137°
2026-05-05 18:45 41.40738 21.93971 26197 ft 485 kts 137°
2026-05-05 18:45 41.38277 21.97007 25461 ft 481 kts 137°
2026-05-05 18:46 41.35832 22.00019 24730 ft 477 kts 137°
2026-05-05 18:46 41.33404 22.03008 24016 ft 473 kts 137°
2026-05-05 18:46 41.31025 22.05932 23244 ft 470 kts 137°
2026-05-05 18:46 41.28636 22.08865 22524 ft 464 kts 137°
2026-05-05 18:47 41.26282 22.11753 21832 ft 458 kts 137°
2026-05-05 18:47 41.23962 22.14600 21170 ft 452 kts 137°
2026-05-05 18:47 41.21662 22.17417 20532 ft 446 kts 137°
2026-05-05 18:47 41.19390 22.20198 19904 ft 441 kts 137°
2026-05-05 18:48 41.17064 22.22818 19339 ft 436 kts 144°
2026-05-05 18:48 41.14484 22.24886 18782 ft 431 kts 154°
2026-05-05 18:48 41.11735 22.26427 18211 ft 427 kts 159°
2026-05-05 18:48 41.08986 22.27896 17598 ft 424 kts 158°
2026-05-05 18:49 41.06266 22.29355 17040 ft 420 kts 158°
2026-05-05 18:49 41.03567 22.30806 16455 ft 416 kts 158°
2026-05-05 18:49 41.00894 22.32245 15865 ft 413 kts 158°
2026-05-05 18:49 40.98241 22.33673 15247 ft 410 kts 158°
2026-05-05 18:50 40.95639 22.35072 14638 ft 407 kts 158°
2026-05-05 18:50 40.93021 22.36479 14010 ft 405 kts 158°
2026-05-05 18:50 40.90414 22.37875 13342 ft 402 kts 158°
2026-05-05 18:50 40.87835 22.39253 12715 ft 397 kts 158°
2026-05-05 18:51 40.85289 22.40610 12087 ft 392 kts 158°
2026-05-05 18:51 40.82870 22.42115 11790 ft 376 kts 146°
2026-05-05 18:51 40.80986 22.44360 11318 ft 363 kts 128°
2026-05-05 18:51 40.79458 22.47006 10823 ft 361 kts 125°
2026-05-05 18:52 40.78200 22.49838 10342 ft 356 kts 112°
2026-05-05 18:52 40.77377 22.52879 9908 ft 349 kts 106°
2026-05-05 18:52 40.76687 22.55921 9412 ft 342 kts 106°
2026-05-05 18:52 40.76018 22.58892 8930 ft 333 kts 105°
2026-05-05 18:53 40.75364 22.61793 8435 ft 326 kts 105°
2026-05-05 18:53 40.74732 22.64621 7979 ft 315 kts 105°
2026-05-05 18:53 40.74131 22.67339 7537 ft 302 kts 105°
2026-05-05 18:53 40.73559 22.69918 7100 ft 292 kts 105°
2026-05-05 18:54 40.72999 22.72445 6665 ft 283 kts 105°
2026-05-05 18:54 40.72457 22.74902 6225 ft 276 kts 105°
2026-05-05 18:54 40.71928 22.77308 5770 ft 269 kts 105°
2026-05-05 18:54 40.71412 22.79656 5313 ft 264 kts 105°
2026-05-05 18:55 40.70899 22.81952 4883 ft 258 kts 105°
2026-05-05 18:55 40.70402 22.84206 4437 ft 253 kts 106°
2026-05-05 18:55 40.69929 22.86414 3989 ft 248 kts 105°
2026-05-05 18:55 40.69465 22.88589 3545 ft 244 kts 111°
2026-05-05 18:56 40.68645 22.90499 3123 ft 236 kts 133°
2026-05-05 18:56 40.67460 22.91843 2853 ft 213 kts 152°
2026-05-05 18:56 40.66179 22.92567 2637 ft 189 kts 167°
2026-05-05 18:56 40.64963 22.92958 2385 ft 170 kts 169°
2026-05-05 18:57 40.63902 22.93296 2173 ft 147 kts 169°
2026-05-05 18:57 40.62941 22.93599 1961 ft 137 kts 168°
2026-05-05 18:57 40.62025 22.93889 1793 ft 134 kts 167°
2026-05-05 18:57 40.61120 22.94179 1624 ft 133 kts 167°
2026-05-05 18:58 40.60229 22.94463 1469 ft 133 kts 167°
2026-05-05 18:58 40.59336 22.94750 1272 ft 132 kts 166°
2026-05-05 18:58 40.58445 22.95033 1084 ft 131 kts 166°
2026-05-05 18:58 40.57557 22.95315 926 ft 131 kts 165°
2026-05-05 18:59 40.56647 22.95604 755 ft 135 kts 166°
2026-05-05 18:59 40.55746 22.95891 592 ft 132 kts 165°
2026-05-05 18:59 40.54849 22.96176 392 ft 132 kts 163°
2026-05-05 18:59 40.53962 22.96459 222 ft 131 kts 162°
2026-05-05 19:00 40.53081 22.96737 48 ft 131 kts 163°
2026-05-05 19:00 40.52278 22.96996 14 ft 99 kts 161°
2026-05-05 19:00 40.51791 22.97153 14 ft 51 kts 167°
2026-05-05 19:00 40.51566 22.97232 16 ft 25 kts 150°
2026-05-05 19:01 40.51543 22.97394 16 ft 17 kts 24°
2026-05-05 19:01 40.51661 22.97378 15 ft 19 kts 346°
2026-05-05 19:01 40.51797 22.97335 15 ft 21 kts 346°
2026-05-05 19:01 40.51950 22.97289 12 ft 22 kts 347°
2026-05-05 19:02 40.52079 22.97254 14 ft 16 kts 19°
2026-05-05 19:02 40.52086 22.97396 14 ft 18 kts 104°
2026-05-05 19:02 40.52055 22.97567 14 ft 20 kts 103°
2026-05-05 19:02 40.52057 22.97732 16 ft 17 kts 40°
2026-05-05 19:03 40.52136 22.97658 15 ft 16 kts 295°
2026-05-05 19:03 40.52198 22.97548 15 ft 13 kts 320°
2026-05-05 19:03 40.52262 22.97594 15 ft 12 kts 43°
2026-05-05 19:03 40.52302 22.97645 15 ft 2 kts 44°
2026-05-05 19:04 40.52309 22.97654 15 ft 0 kts 45°